Whiteman AFB, MO

1:03 AM CST on December 17, 2017 (GMT -0600)
Whiteman Air Force Base

Weather History for KSZL - October, 2011

Change the Weather History Date:

Saturday, October 29, 2011

  Actual Average Record
Temperature  
Mean Temperature 48 °F -  
Max Temperature 68 °F 60 °F 81 °F (2016)
Min Temperature 29 °F 43 °F 24 °F (2017)
Degree Days  
Heating Degree Days 17    
Moisture  
Dew Point 27 °F    
Average Humidity 47    
Maximum Humidity 77    
Minimum Humidity 22    
Precipitation  
Precipitation 0.00 in - - ()
Sea Level Pressure  
Sea Level Pressure 30.10 in    
Wind  
Wind Speed 8 mph (SSW)    
Max Wind Speed 18 mph    
Max Gust Speed 26 mph    
Visibility 10 miles    
Events      
Averages and records for this station are not official NWS values.
T = Trace of Precipitation, MM = Missing Value Source: NWS Daily Summary

Daily Weather History Graph

Daily Weather History Graph

Search for Another Location

Airport or City:

Trip Planner

Search our weather history database for the weather conditions in past years. The results will help you decide how hot, cold, wet, or windy it might be!

Date:

Astronomy

Oct. 29, 2011 Rise Set
Actual Time 7:37 AM CDT 6:17 PM CDT
Civil Twilight 7:10 AM CDT 6:45 PM CDT
Nautical Twilight 6:38 AM CDT 7:16 PM CDT
Astronomical Twilight 6:08 AM CDT 7:47 PM CDT
Moon 10:58 AM CDT (10/29) 8:43 PM CDT (10/29)
Length of Visible Light 11h 34m
Length of Day
10h 40m
Waxing Crescent, 12% of the Moon is Illuminated
Oct 29
Waxing Crescent
Nov 2
First Quarter
Nov 10
Full
Nov 18
Last Quarter
Nov 25
New

Hourly Weather History & Observations

Time (CDT) Temp. Windchill Dew Point Humidity Pressure Visibility Wind Dir Wind Speed Gust Speed Precip Events Conditions
12:55 AM 40.1 °F 36.9 °F 23.4 °F 51% 30.19 in 10.0 mi SW 4.6 mph - N/A   Clear
1:55 AM 33.8 °F 30.8 °F 24.1 °F 68% 30.18 in 10.0 mi SSW 3.5 mph - N/A   Clear
2:55 AM 31.8 °F 27.3 °F 23.9 °F 73% 30.19 in 10.0 mi SSW 4.6 mph - N/A   Clear
3:55 AM 30.4 °F 24.5 °F 23.7 °F 76% 30.17 in 10.0 mi SSW 5.8 mph - N/A   Clear
4:55 AM 29.8 °F 26.3 °F 23.4 °F 77% 30.17 in 10.0 mi SW 3.5 mph - N/A   Clear
5:55 AM 29.8 °F 24.9 °F 23.2 °F 76% 30.18 in 10.0 mi SW 4.6 mph - N/A   Clear
6:55 AM 31.5 °F 28.1 °F 22.8 °F 70% 30.17 in 10.0 mi SSW 3.5 mph - N/A   Clear
7:55 AM 31.1 °F 25.4 °F 23.2 °F 72% 30.19 in 10.0 mi SSW 5.8 mph - N/A   Clear
8:55 AM 38.8 °F 33.8 °F 29.7 °F 70% 30.21 in 10.0 mi SSW 6.9 mph - N/A   Clear
9:55 AM 48.7 °F - 25.9 °F 41% 30.20 in 10.0 mi SW 12.7 mph - N/A   Clear
10:55 AM 54.7 °F - 24.4 °F 31% 30.18 in 10.0 mi South 12.7 mph - N/A   Clear
11:55 AM 58.5 °F - 26.6 °F 30% 30.16 in 10.0 mi South 15.0 mph - N/A   Clear
12:55 PM 62.6 °F - 26.6 °F 26% 30.12 in 10.0 mi SSW 15.0 mph - N/A   Clear
1:55 PM 65.3 °F - 27.7 °F 24% 30.08 in 10.0 mi SSW 13.8 mph - N/A   Clear
2:55 PM 66.9 °F - 28.2 °F 23% 30.03 in 10.0 mi SSW 17.3 mph 20.7 mph N/A   Clear
3:55 PM 67.6 °F - 27.0 °F 22% 30.01 in 10.0 mi SW 18.4 mph 26.5 mph N/A   Clear
4:55 PM 66.7 °F - 28.9 °F 24% 30.00 in 10.0 mi SSW 18.4 mph 25.3 mph N/A   Clear
5:55 PM 62.6 °F - 27.5 °F 26% 29.99 in 10.0 mi SW 12.7 mph - N/A   Clear
6:55 PM 53.1 °F - 27.7 °F 38% 30.01 in 10.0 mi South 10.4 mph - N/A   Clear
7:55 PM 50.2 °F - 28.4 °F 43% 30.02 in 10.0 mi South 12.7 mph - N/A   Partly Cloudy
8:55 PM 51.6 °F - 29.5 °F 43% 30.01 in 10.0 mi South 12.7 mph - N/A   Partly Cloudy
9:55 PM 54.1 °F - 30.4 °F 40% 30.01 in 10.0 mi South 12.7 mph - N/A   Overcast
10:55 PM 50.5 °F - 30.7 °F 47% 30.02 in 10.0 mi SSW 11.5 mph - N/A   Mostly Cloudy
11:55 PM 52.3 °F - 31.3 °F 45% 30.01 in 10.0 mi South 12.7 mph - N/A   Overcast